TOURFACTS.DK  
Stats and Facts from Tour de France.

Tour de France 2017 starts in 2 days
  Riders   Stages   Teams   Summits   Yearly  


 
Search by year

 After:  2016 - Stage 21:
  14626 starters.
  5126 different riders.
  634 teams.
  2211 stages.
  454 restdays.
  436049.60 km.
  5622 abandonnees.


Top 3
Christopher Froome89:04:48
Romain Bardet89:08:53
Nairo Quintana89:09:09
Rafal Majka209 pt.
Thomas De Gendt130 pt.
Jarlinson Pantano ..121 pt.
Peter Sagan470 pt.
Marcel Kittel228 pt.
Michael Matthews199 pt.
Adam Yates89:09:30
Louis Meintjes89:11:46
Emanuel Buchmann89:52:28
Facts from Tour de France 2015
  |   Stages.  |   Stage winners.  |   Days in yellow  |   Average speed.  |   Route.  |   Teams.  |   All riders.  |   Rookies.  |   Withdrawls.  |  

  |   GC.  |   Polka  |   Green  |   White  |   Summits. (In tour)  |   Summits. (Points)  |   Miscellaneous.  |  

Stage 16 on 20 - 07 - 2015
         Owning:    Christopher Froome      Christopher Froome      Peter Sagan      Nairo Quintana  

Pick a stage:  1 2 3 4 5 6 7 8 10 11 12 13 14 15 16 17 18 19 20 21
  Bourg-de-PéageGap | Dist: 201.00 km.
Cat: 2Col de CabreBELSerge Pauwels5 points 
Cat: 2Col de ManseESPRubén Plaza5 points 

Average speed for all riders in stage:  41,091 km./hr.
    Place:Name:Team:Time:Km/h:
ESPRubén PlazaITALampre-Merida04:30:10  +  00:00:00=44,639 
SVKPeter SaganRUSTinkoff Saxo04:30:40  +  00:00:30=44,557 
COLJarlinson Pantano GomezCHEIAM Cycling04:30:46  +  00:00:36=44,540 
4 DEUSimon GeschkeDEUTeam Giant Alpecin04:30:50  +  00:00:40=44,529 
5 LUXBob JungelsUSATrek Factory Racing04:30:50  +  00:00:40=44,529 
6 FRAChristophe RiblonFRAAg2r La Mondiale04:30:50  +  00:00:40=44,529 
7 ERIDaniel TeklehaimanotZAFMTN - Qhubeka P/B Samsung04:31:03  +  00:00:53=44,494 
8 BELThomas De GendtBELLotto Soudal04:31:32  +  00:01:22=44,414 
9 ESPLuis Angel MateFRACofidis – Solutions Crédits04:31:32  +  00:01:22=44,414 
10 FRAThomas VoecklerFRATeam Europcar04:31:32  +  00:01:22=44,414 
11 FRAPierrick FédrigoFRABretagne - Séché Environnement04:32:04  +  00:01:54=44,327 
12 UKRAndriy GrivkoKAZAstana Pro Team04:32:04  +  00:01:54=44,327 
13 BELSerge PauwelsZAFMTN - Qhubeka P/B Samsung04:32:04  +  00:01:54=44,327 
14 POLMichal GolasBELEtixx - Quick Step04:32:05  +  00:01:55=44,325 
15 ESPImanol ErvitiESPMovistar Team04:32:29  +  00:02:19=44,260 
16 AUTMarco HallerRUSTeam Katusha04:32:50  +  00:02:40=44,203 
17 ESPDaniel NavarroFRACofidis – Solutions Crédits04:33:37  +  00:03:27=44,076 
18 AUSAdam HansenBELLotto Soudal04:34:17  +  00:04:07=43,969 
19 NOREdvald Boasson HagenZAFMTN - Qhubeka P/B Samsung04:34:24  +  00:04:14=43,950 
20 PRTNelson OliveiraITALampre-Merida04:34:24  +  00:04:14=43,950 
21 FRAPierre-Luc PérichonFRABretagne - Séché Environnement04:36:23  +  00:06:13=43,635 
22 ESPMarkel IrizarUSATrek Factory Racing04:37:19  +  00:07:09=43,488 
23 ITAMatteo TrentinBELEtixx - Quick Step04:38:54  +  00:08:44=43,241 
24 ITAVincenzo NibaliKAZAstana Pro Team04:47:54  +  00:17:44=41,890 
25 ESPAlberto ContadorRUSTinkoff Saxo04:48:22  +  00:18:12=41,822 
26 NLDBauke MollemaUSATrek Factory Racing04:48:22  +  00:18:12=41,822 
27 FRARomain BardetFRAAg2r La Mondiale04:48:22  +  00:18:12=41,822 
28 KENChristopher FroomeGBRSky Procycling04:48:22  +  00:18:12=41,822 
29 ESPAlejandro ValverdeESPMovistar Team04:48:22  +  00:18:12=41,822 
30 USATejay Van GarderenUSABMC Racing Team04:48:22  +  00:18:12=41,822 
31 NLDRobert GesinkNLDTeam Lotto NL - Jumbo04:48:22  +  00:18:12=41,822 
32 COLNairo QuintanaESPMovistar Team04:48:22  +  00:18:12=41,822 
33 FRAWarren BarguilDEUTeam Giant Alpecin04:48:22  +  00:18:12=41,822 
34 WALGeraint ThomasGBRSky Procycling04:49:00  +  00:18:50=41,730 
35 NLDWout PoelsGBRSky Procycling04:49:00  +  00:18:50=41,730 
36 USAAndrew TalanskyUSATeam Cannondale - Garmin04:49:19  +  00:19:09=41,684 
37 ITADamiano CarusoUSABMC Racing Team04:49:19  +  00:19:09=41,684 
38 FRAPierre RollandFRATeam Europcar04:49:19  +  00:19:09=41,684 
39 ESPSamuel SanchezUSABMC Racing Team04:49:19  +  00:19:09=41,684 
40 CZERoman KreuzigerRUSTinkoff Saxo04:49:19  +  00:19:09=41,684 
41 CHEMathias FrankCHEIAM Cycling04:49:19  +  00:19:09=41,684 
42 ITAMichele ScarponiKAZAstana Pro Team04:49:19  +  00:19:09=41,684 
43 ESPGorka Izaguirre InsaustiESPMovistar Team04:49:19  +  00:19:09=41,684 
44 BELJan BakelantsFRAAg2r La Mondiale04:49:19  +  00:19:09=41,684 
45 FRAAlexis VuillermozFRAAg2r La Mondiale04:49:19  +  00:19:09=41,684 
46 FRAThibaut PinotFRAFDJ04:49:19  +  00:19:09=41,684 
47 CZEJan BártaDEUBora-Argon 1804:51:15  +  00:21:05=41,408 
48 FRAMickaël CherelFRAAg2r La Mondiale04:51:15  +  00:21:05=41,408 
49 FRACyril GautierFRATeam Europcar04:51:50  +  00:21:40=41,325 
50 NLDLieuwe WestraKAZAstana Pro Team04:51:50  +  00:21:40=41,325 
51 FRARomain SicardFRATeam Europcar04:51:50  +  00:21:40=41,325 
52 HRVKristijan DurasekITALampre-Merida04:51:50  +  00:21:40=41,325 
53 CHEJakob FuglsangKAZAstana Pro Team04:51:50  +  00:21:40=41,325 
54 DNKLars BakBELLotto Soudal04:52:01  +  00:21:51=41,299 
55 FRATony GallopinBELLotto Soudal04:52:01  +  00:21:51=41,299 
56 FRAAngelo TulikFRATeam Europcar04:54:50  +  00:24:40=40,904 
57 CHEMichael SchärUSABMC Racing Team04:55:08  +  00:24:58=40,863 
58 DEUPaul MartensNLDTeam Lotto NL - Jumbo04:55:08  +  00:24:58=40,863 
59 CHEMarcel WyssCHEIAM Cycling04:55:08  +  00:24:58=40,863 
60 NLDSteven KruijswijkNLDTeam Lotto NL - Jumbo04:55:08  +  00:24:58=40,863 
61 NLDStef ClementCHEIAM Cycling04:55:08  +  00:24:58=40,863 
62 CHEDanilo WyssUSABMC Racing Team04:55:08  +  00:24:58=40,863 
63 NLDRoy CurversDEUTeam Giant Alpecin04:55:08  +  00:24:58=40,863 
64 CANRyder HesjedalUSATeam Cannondale - Garmin04:55:08  +  00:24:58=40,863 
65 SVNKristjan KorenUSATeam Cannondale - Garmin04:55:08  +  00:24:58=40,863 
66 CHEGregory RastUSATrek Factory Racing04:55:08  +  00:24:58=40,863 
67 FRAMatthieu LadagnousFRAFDJ04:55:08  +  00:24:58=40,863 
68 FRAFlorian VachonFRABretagne - Séché Environnement04:55:08  +  00:24:58=40,863 
69 NLDKoen De KortDEUTeam Giant Alpecin04:55:08  +  00:24:58=40,863 
70 ENGAdam YatesAUSOrica - GreenEDGE04:55:08  +  00:24:58=40,863 
71 NLDBram TankinkNLDTeam Lotto NL - Jumbo04:55:08  +  00:24:58=40,863 
72 CHEReto HollensteinCHEIAM Cycling04:55:08  +  00:24:58=40,863 
73 FRAArmindo FonsecaFRABretagne - Séché Environnement04:55:08  +  00:24:58=40,863 
74 FRAAnthony DelaplaceFRABretagne - Séché Environnement04:55:08  +  00:24:58=40,863 
75 FRAFrédéric BrunFRABretagne - Séché Environnement04:55:08  +  00:24:58=40,863 
76 FRAPerrig QuemeneurFRATeam Europcar04:55:08  +  00:24:58=40,863 
77 DNKMichael ValgrenRUSTinkoff Saxo04:55:08  +  00:24:58=40,863 
78 FRABrice FeilluFRABretagne - Séché Environnement04:55:08  +  00:24:58=40,863 
79 NLDDylan Van BaarleUSATeam Cannondale - Garmin04:55:08  +  00:24:58=40,863 
80 AUTGeorg PreidlerDEUTeam Giant Alpecin04:55:08  +  00:24:58=40,863 
81 ESPHaimar ZubeldiaUSATrek Factory Racing04:55:08  +  00:24:58=40,863 
82 ITAMatteo TosattoRUSTinkoff Saxo04:55:08  +  00:24:58=40,863 
83 AUSRichie PorteGBRSky Procycling04:55:08  +  00:24:58=40,863 
84 ESPJosé Herrada LópezESPMovistar Team04:55:08  +  00:24:58=40,863 
85 AUSMichael RogersRUSTinkoff Saxo04:55:08  +  00:24:58=40,863 
86 AUSNathan HaasUSATeam Cannondale - Garmin04:55:08  +  00:24:58=40,863 
87 ESPJonathan CastroviejoESPMovistar Team04:55:08  +  00:24:58=40,863 
88 FRAFlorian SénéchalFRACofidis – Solutions Crédits04:55:08  +  00:24:58=40,863 
89 ENGStephen CummingsZAFMTN - Qhubeka P/B Samsung04:55:08  +  00:24:58=40,863 
90 KAZDmitriy GruzdevKAZAstana Pro Team04:55:08  +  00:24:58=40,863 
91 COLWinner AnaconaESPMovistar Team04:55:08  +  00:24:58=40,863 
92 COLJulián ArredondoUSATrek Factory Racing04:55:08  +  00:24:58=40,863 
93 FRANicolas RocheGBRSky Procycling04:55:08  +  00:24:58=40,863 
94 CZELeopold KönigGBRSky Procycling04:55:08  +  00:24:58=40,863 
95 ITAManuel QuinziatoUSABMC Racing Team04:56:31  +  00:26:21=40,672 
96 FRABryan CoquardFRATeam Europcar04:56:31  +  00:26:21=40,672 
97 FRAArnaud DémareFRAFDJ05:00:46  +  00:30:36=40,098 
98 FRASylvain ChavanelCHEIAM Cycling05:00:46  +  00:30:36=40,098 
99 ITAJacopo GuarnieriRUSTeam Katusha05:00:46  +  00:30:36=40,098 
100 DEUMarcel SiebergBELLotto Soudal05:00:46  +  00:30:36=40,098 
101 BELJens DebusschereBELLotto Soudal05:00:46  +  00:30:36=40,098 
102 FRAJérémy RoyFRAFDJ05:00:46  +  00:30:36=40,098 
103 DEUAndré GreipelBELLotto Soudal05:00:46  +  00:30:36=40,098 
104 FRABryan NauleauFRATeam Europcar05:00:46  +  00:30:36=40,098 
105 CHEMartin ElmigerCHEIAM Cycling05:00:46  +  00:30:36=40,098 
106 AUSRohan DennisUSABMC Racing Team05:00:46  +  00:30:36=40,098 
107 ESPJoaquim RodriguezRUSTeam Katusha05:00:46  +  00:30:36=40,098 
108 DEUJohn DegenkolbDEUTeam Giant Alpecin05:00:46  +  00:30:36=40,098 
109 PRTJosé João PimentaDEUBora-Argon 1805:00:46  +  00:30:36=40,098 
110 ERIMerhawi GhebremedhinZAFMTN - Qhubeka P/B Samsung05:00:46  +  00:30:36=40,098 
111 FRAYohann GèneFRATeam Europcar05:00:46  +  00:30:36=40,098 
112 NORAlexander KristoffRUSTeam Katusha05:00:46  +  00:30:36=40,098 
113 FRAArnaud GérardFRABretagne - Séché Environnement05:00:46  +  00:30:36=40,098 
114 FRADamien GaudinFRAAg2r La Mondiale05:00:46  +  00:30:36=40,098 
115 USRTanel KangertKAZAstana Pro Team05:00:46  +  00:30:36=40,098 
116 NLDJos Van EmdenNLDTeam Lotto NL - Jumbo05:00:46  +  00:30:36=40,098 
117 AUSMark RenshawBELEtixx - Quick Step05:00:46  +  00:30:36=40,098 
118 ENGDaniel MartinUSATeam Cannondale - Garmin05:00:46  +  00:30:36=40,098 
119 BELKenneth VanbilsenFRACofidis – Solutions Crédits05:00:46  +  00:30:36=40,098 
120 BELSep VanmarckeNLDTeam Lotto NL - Jumbo05:00:46  +  00:30:36=40,098 
121 NLDTom LeezerNLDTeam Lotto NL - Jumbo05:00:46  +  00:30:36=40,098 
122 NLDWilco KeldermanNLDTeam Lotto NL - Jumbo05:00:46  +  00:30:36=40,098 
123 ESPRafael Valls FerriITALampre-Merida05:00:46  +  00:30:36=40,098 
124 FRAJulien SimonFRACofidis – Solutions Crédits05:00:46  +  00:30:36=40,098 
125 ITADaniel OssUSABMC Racing Team05:00:46  +  00:30:36=40,098 
126 BELJulien VermoteBELEtixx - Quick Step05:00:46  +  00:30:36=40,098 
127 CZEZdenek StybarBELEtixx - Quick Step05:00:46  +  00:30:36=40,098 
128 ZAFReinardt Janse Van RensburgZAFMTN - Qhubeka P/B Samsung05:00:46  +  00:30:36=40,098 
129 COLRigoberto UranBELEtixx - Quick Step05:00:46  +  00:30:36=40,098 
130 FRANicolas EdetFRACofidis – Solutions Crédits05:00:46  +  00:30:36=40,098 
131 LUXLaurent DidierUSATrek Factory Racing05:00:46  +  00:30:36=40,098 
132 FRABenoit VaugrenardFRAFDJ05:00:46  +  00:30:36=40,098 
133 FRASébastien ChavanelFRAFDJ05:00:46  +  00:30:36=40,098 
134 ITAFilippo PozzatoITALampre-Merida05:00:46  +  00:30:36=40,098 
135 FRAAlexandre GeniezFRAFDJ05:00:46  +  00:30:36=40,098 
136 USRRamunas NavardauskasUSATeam Cannondale - Garmin05:00:46  +  00:30:36=40,098 
137 ITAMatteo BonoITALampre-Merida05:00:46  +  00:30:36=40,098 
138 PRTTiago PintoRUSTeam Katusha05:00:46  +  00:30:36=40,098 
139 FRAGeoffrey SoupeFRACofidis – Solutions Crédits05:00:46  +  00:30:36=40,098 
140 COLJosé SerpaITALampre-Merida05:00:46  +  00:30:36=40,098 
141 ESPAlberto LosadaRUSTeam Katusha05:00:46  +  00:30:36=40,098 
142 ITAGiampaolo CarusoRUSTeam Katusha05:00:46  +  00:30:36=40,098 
143 BELStijn DevolderUSATrek Factory Racing05:00:46  +  00:30:36=40,098 
144 FRAJean-Christophe PeraudFRAAg2r La Mondiale05:00:46  +  00:30:36=40,098 
145 USATyler FarrarZAFMTN - Qhubeka P/B Samsung05:00:46  +  00:30:36=40,098 
146 AUTMatthias BrändleCHEIAM Cycling05:00:46  +  00:30:36=40,098 
147 IMNMark CavendishBELEtixx - Quick Step05:00:46  +  00:30:36=40,098 
148 AUSMichael MatthewsAUSOrica - GreenEDGE05:00:46  +  00:30:36=40,098 
149 POLRafal MajkaRUSTinkoff Saxo05:00:46  +  00:30:36=40,098 
150 DEUEmanuel BuchmannDEUBora-Argon 1805:00:46  +  00:30:36=40,098 
151 ITADavide CimolaiITALampre-Merida05:00:46  +  00:30:36=40,098 
152 ZAFJacques Janse Van RensburgZAFMTN - Qhubeka P/B Samsung05:00:46  +  00:30:36=40,098 
153 ZAFLouis MeintjesZAFMTN - Qhubeka P/B Samsung05:00:46  +  00:30:36=40,098 
154 FRAJérôme CoppelCHEIAM Cycling05:00:46  +  00:30:36=40,098 
155 POLMichal KwiatkowskiBELEtixx - Quick Step05:00:46  +  00:30:36=40,098 
156 DEUPaul VossDEUBora-Argon 1805:00:46  +  00:30:36=40,098 
157 ENGIan StannardGBRSky Procycling05:00:46  +  00:30:36=40,098 
158 NLDPieter WeeningAUSOrica - GreenEDGE05:00:46  +  00:30:36=40,098 
159 FRAChristophe LaporteFRACofidis – Solutions Crédits05:00:46  +  00:30:36=40,098 
160 ENGSimon YatesAUSOrica - GreenEDGE05:00:46  +  00:30:36=40,098 
161 BELTim WellensBELLotto Soudal05:00:46  +  00:30:36=40,098 
162 CANSvein TuftAUSOrica - GreenEDGE05:00:46  +  00:30:36=40,098 
163 POLBartosz HuzarskiDEUBora-Argon 1805:00:46  +  00:30:36=40,098 
164 WALLuke RoweGBRSky Procycling05:00:46  +  00:30:36=40,098 
165 AUSLuke DurbridgeAUSOrica - GreenEDGE05:00:46  +  00:30:36=40,098 
166 BELSam BennettDEUBora-Argon 1805:00:46  +  00:30:36=40,098 
167 NLDLaurens ten DamNLDTeam Lotto NL - Jumbo05:00:46  +  00:30:36=40,098 
168 NLDAlbert TimmerDEUTeam Giant Alpecin05:00:46  +  00:30:36=40,098 
169 ITAAdriano MaloriESPMovistar Team05:00:46  +  00:30:36=40,098 

Withdrawls: 2
 
Rider
Team
Reason
32  IMNPeter KennaughGBRSky ProcyclingDid not finish
68  BELGreg Van AvermaetUSABMC Racing TeamDid not finish

Todays birthdays.

1888  René Etien
1891  Arturo Ferrario
1913  Léon Theerlynck
1921  Roger Piel
1929  Antonio Ferraz
1930  Rizzardo Brenioli
1934  Orphée Meneghini
1943  Pietro Guerra
1961  Marc Somers
1964  Ettore Badolato
1967  Miguel Angel Martinez
1968  Davide Bramati
1981  Vasil Kiryienka